Tracking 28125 objects as of 4-Oct-2023
HD Live streaming from Space Station
objects crossing your sky now

THORAD AGENA D DEB

Track THORAD AGENA D DEB now!
10-day predictions


NORAD ID: 5024
Int'l Code: 1970-025HY
Perigee: 767.9 km
Apogee: 899.0 km
Inclination: 99.8 °
Period: 101.4 minutes
Semi major axis: 7204 km
RCS: 0.0419 m2 (small)
Launch date: April 8, 1970
Source: United States (US)
Launch site: AIR FORCE WESTERN TEST RANGE (AFWTR)

Note: This is SATELLITE DEBRIS
Your satellite tracking list
Your tracking list is empty




NASA's NSSDC Master Catalog

Two Line Element Set (TLE):
1 05024U 70025HY  23276.49503946  .00002114  00000-0  98282-3 0  9995
2 05024  99.8457 114.9967 0090937   9.5078 350.7790 14.19715118731559
Source of the keplerian elements: AFSPC